Flag for Cabo Verde Weather past 2 weeks in Santa Maria, Cabo Verde

Now
77 °F

Partly sunny.


Feels Like: 78 °F
Forecast: 78 / 86 °F
Wind: 8 mph from Northeast

Location: Sal

Current Time: Aug 22, 2014 at 5:21:18 AM

Latest Report: Aug 22, 2014 at 5:00 AM


Visibility: 6 mi

Pressure: 29.92 "Hg

Humidity: 94%

Dew point: 75 °F

Location of Santa MariaLocation

Historic Weather in Santa Maria — Graph

°F

Santa Maria temperature yesterday

Maximum temperature yesterday: 88 °F (at 1:00 PM)
Minimum temperature yesterday: 73 °F (at 3:00 AM)
Average temperature yesterday: 79 °F

Past Weeks' High & Low Weather Summary

 TemperatureHumidityPressure
High88 °F (Aug 21, 1:00 PM)94% (Aug 12, 4:00 AM)30.04 "Hg (Aug 12, 4:00 AM)
Low72 °F (Aug 20, 6:00 AM)55% (Aug 14, 2:00 PM)29.83 "Hg (Aug 13, 3:00 PM)
Average78 °F76%29.93 "Hg
* Reported Aug 7 4:00 AM — Aug 22 4:00 AM, Santa Maria, Weather by CustomWeather, © 2014

Note: Actual official high and low records may vary slightly from our data, if they occured in-between our weather recording intervals... More about our weather records

Advertising

Santa Maria weather history for previous 24 hours

 ConditionsComfort  
Time TempWeatherWind HumidityBarometerVisibility
4:00 AM
Aug 22
77 °FPassing clouds.8 mph94%29.92 "Hg6 mi
3:00 AM77 °FPassing clouds.8 mph94%29.92 "Hg6 mi
2:00 AM77 °FPassing clouds.8 mph94%29.95 "Hg6 mi
1:00 AM77 °FPassing clouds.8 mph94%29.95 "Hg5 mi
12:00 AM77 °FPassing clouds.8 mph94%29.98 "Hg5 mi
11:00 PM
Aug 21
77 °FPassing clouds.8 mph94%29.98 "HgN/A
10:00 PM77 °FPartly cloudy.10 mph94%29.98 "HgN/A
9:00 PM77 °FPassing clouds.10 mph94%29.95 "HgN/A
8:00 PM79 °FPassing clouds.13 mph89%29.95 "HgN/A
7:00 PM79 °FPartly cloudy.15 mph89%29.92 "HgN/A
6:00 PM81 °FPassing clouds.18 mph84%29.92 "HgN/A
5:00 PM81 °FPassing clouds.18 mph84%29.92 "HgN/A
4:00 PM82 °FPartly sunny.17 mph79%29.92 "HgN/A
3:00 PM84 °FBroken clouds.17 mph70%29.92 "HgN/A
2:00 PM84 °FBroken clouds.14 mph70%29.92 "HgN/A
1:00 PM88 °FPartly sunny.10 mph62%29.92 "HgN/A
12:00 PM86 °FBroken clouds.10 mph70%29.95 "HgN/A
11:00 AM82 °FDrizzle. Cloudy.10 mph74%29.95 "HgN/A
10:00 AM81 °FBroken clouds.8 mph79%29.98 "HgN/A
9:00 AM79 °FPartly sunny.9 mph84%29.95 "HgN/A
8:00 AM75 °FDrizzle. Partly sunny.8 mph94%29.95 "HgN/A
7:00 AM75 °FPartly sunny.8 mph89%29.95 "HgN/A
6:00 AM75 °FBroken clouds.7 mph89%29.95 "HgN/A
5:00 AM75 °FPartly sunny.7 mph89%29.95 "HgN/A
Weather by CustomWeather, © 2014

See weather overviewHow to use our weather pages